Regional Weather Roundup
Issued by NWS

Home | Current Version | Previous Version | Text Only | Print | Product List | Glossary Off
Versions: 1 2 3 4 5 6 7 8 9 10 11 12 13 14 15 16 17 18 19 20 21 22 23 24 25 26 27 28 29 30 31 32 33 34 35 36 37 38 39 40 41 42 43 44 45 46 47 48 49 50

000
ASUS43 KOAX 261410
RWRNE

WEATHER ROUNDUP FOR NEBRASKA
NATIONAL WEATHER SERVICE OMAHA NE
800 AM CST FRI DEC 26 2014

NOTES: SATELLITE DATA IS BEING USED TO AUGMENT CLOUD COVER ABOVE
       12000 FEET.
       "FAIR" INDICATES FEW OR NO CLOUDS BELOW 12,000 FEET WITH NO
       SIGNIFICANT WEATHER AND/OR OBSTRUCTIONS TO VISIBILITY.

  * THESE STATIONS DO NOT REPORT WEATHER SUCH AS RAIN...SNOW OR FOG.

NEZ001>004-019>022-054>056-261500-
NEBRASKA PANHANDLE

CITY           SKY/WX    TMP DP  RH WIND       PRES   REMARKS
SCOTTSBLUFF    FLURRIES  18  14  84 W3        30.01S
ALLIANCE       FLURRIES  16  14  92 N7        30.00R WCI   6
CHADRON        LGT SNOW  19  16  88 NE5       30.06R FOG     WCI  12
KIMBALL        LGT SNOW  15  14  93 N10       29.92S WCI   3
SIDNEY         LGT SNOW  17  14  88 N10       29.97S FOG     WCI   5
$$

NEZ057>060-069>072-079>082-261500-
SOUTHWEST NEBRASKA

CITY           SKY/WX    TMP DP  RH WIND       PRES   REMARKS
NORTH PLATTE   CLOUDY    24  19  81 N12       30.00R WCI  13
IMPERIAL       CLOUDY    23  18  81 N18       30.00R WCI   9
LEXINGTON      CLOUDY    27  22  84 N18       29.99R WCI  14
MCCOOK         CLOUDY    26  20  77 N16       30.00R WCI  14
OGALLALA       CLOUDY    23  18  81 NE13      30.02R WCI  11
$$

NEZ005>010-023>029-035>040-094-261500-
NORTH CENTRAL NEBRASKA

CITY           SKY/WX    TMP DP  RH WIND       PRES   REMARKS
VALENTINE      CLOUDY    22  19  89 N10       30.05R WCI  11
AINSWORTH      CLOUDY    22  20  93 N15       30.03R WCI   9
BROKEN BOW     CLOUDY    25  20  81 N23       29.99R WCI  10
O`NEILL        CLOUDY    26  25  96 N13       30.03R WCI  15
ORD            CLOUDY    25  21  85 N15G23    30.01R WCI  13
THEDFORD       CLOUDY    23  20  89 N13G18    30.02R WCI  11
$$

NEZ041-046>049-061>064-073>077-083>087-261500-
SOUTH CENTRAL NEBRASKA

CITY           SKY/WX    TMP DP  RH WIND       PRES   REMARKS
GRAND ISLAND   CLOUDY    27  23  85 N18       29.98S WCI  14
AURORA         CLOUDY    28  26  91 N21       29.97R WCI  15
HASTINGS       CLOUDY    27  23  85 N20       29.96R WCI  13
HEBRON         CLOUDY    31  27  84 N10       29.96R WCI  22
HOLDREGE       CLOUDY    27  22  84 N21       29.98R WCI  13
KEARNEY *      CLOUDY    27  19  74 N23G29    29.97R WCI  12
YORK           CLOUDY    28  27  93 N21G28    29.96R WCI  15
$$

NEZ011>018-030>034-042>045-261500-
NORTHEAST NEBRASKA

CITY           SKY/WX    TMP DP  RH WIND       PRES   REMARKS
NORFOLK        CLOUDY    28  25  88 N13       30.00R WCI  17
ALBION         CLOUDY    28  23  82 N13G21    30.01R WCI  17
BLAIR          CLOUDY    33  32  96 N16       29.93R FOG     WCI  22
COLUMBUS *     CLOUDY    28  21  74 N15       29.99R WCI  17
FREMONT        CLOUDY    32  31  95 N10       29.97R WCI  24
TEKAMAH        CLOUDY    33  30  88 N23G30    29.97R WCI  21
WAYNE          CLOUDY    29  26  89 N15G24    30.00R WCI  18
$$

NEZ050>053-065>068-078-088>093-261500-
SOUTHEAST NEBRASKA

CITY           SKY/WX    TMP DP  RH WIND       PRES   REMARKS
LINCOLN        CLOUDY    32  28  85 N17       29.98R WCI  21
OMAHA EPPLEY   CLOUDY    34  32  92 N14       29.96R FOG     WCI  25
BEATRICE       CLOUDY    32  29  90 N15G24    29.95R WCI  22
FALLS CITY     CLOUDY    33  31  92 N12       29.92R FOG     WCI  24
NEBRASKA CITY  CLOUDY    33  33 100 N12       29.93R FOG     WCI  24
PLATTSMOUTH    CLOUDY    33  31  91 N10G18    29.93R FOG     WCI  25
$$

NEZ044-045-051>053-067-261500-
OMAHA AREA

CITY           SKY/WX    TMP DP  RH WIND       PRES   REMARKS
OMAHA EPPLEY   CLOUDY    34  32  92 N14       29.96R FOG     WCI  25
BLAIR          CLOUDY    33  32  96 N16       29.93R FOG     WCI  22
FREMONT        CLOUDY    32  31  95 N10       29.97R WCI  24
MILLARD        CLOUDY    34  32  92 N10G17    29.95R FOG     WCI  26
OFFUTT AFB     CLOUDY    34  32  93 N9        29.94R WCI  26
PLATTSMOUTH    CLOUDY    33  31  91 N10G18    29.93R FOG     WCI  25
WAHOO          CLOUDY    32  29  89 N17G24    29.95S WCI  21
$$



USA.gov is the U.S. government's official web portal to all federal, state and local government web resources and services.